Weather History for KORL - March, 2012

Change the Weather History Date:

Monday, March 19, 2012

  Actual Average Record
Temperature  
Mean Temperature 72 °F -  
Max Temperature 84 °F 75 °F 88 °F (2003)
Min Temperature 62 °F 56 °F 43 °F (2005)
Cooling Degree Days 7    
Growing Degree Days 22 (Base 50)    
Moisture  
Dew Point 60 °F    
Average Humidity 67    
Maximum Humidity 93    
Minimum Humidity 41    
Precipitation  
Precipitation 0.00 in - - ()
Sea Level Pressure  
Sea Level Pressure 30.17 in    
Wind  
Wind Speed 4 mph (East)    
Max Wind Speed 14 mph    
Max Gust Speed 21 mph    
Visibility 10 miles    
Events      
Averages and records for this station are not official NWS values.
T = Trace of Precipitation, MM = Missing Value Source: NWS Daily Summary

Daily Weather History Graph

Daily Weather History Graph

Search for Another Location

Airport or City:

Trip Planner

Search our weather history database for the weather conditions in past years. The results will help you decide how hot, cold, wet, or windy it might be!

Date:

Astronomy

Mar. 19, 2012 Rise Set
Actual Time 7:29 AM EDT 7:36 PM EDT
Civil Twilight 7:06 AM EDT 7:59 PM EDT
Nautical Twilight 6:38 AM EDT 8:27 PM EDT
Astronomical Twilight 6:11 AM EDT 8:55 PM EDT
Moon 5:29 AM EDT (3/19) 5:12 PM EDT (3/19)
Length of Visible Light 12h 53m
Length of Day
12h 06m
Waning Crescent, 8% of the Moon is Illuminated
Mar 19
Waning Crescent
Mar 22
New
Mar 30
First Quarter
Apr 6
Full
Apr 13
Last Quarter

Hourly Weather History & Observations

Time (EDT) Temp. Heat Index Dew Point Humidity Pressure Visibility Wind Dir Wind Speed Gust Speed Precip Events Conditions
2:53 AM 64.0 °F - 61.0 °F 90% 30.19 in 10.0 mi Calm Calm - N/A   Clear
3:53 AM 66.0 °F - 62.1 °F 87% 30.18 in 10.0 mi Calm Calm - N/A   Clear
4:53 AM 63.0 °F - 61.0 °F 93% 30.18 in 10.0 mi Calm Calm - N/A   Clear
5:53 AM 62.1 °F - 60.1 °F 93% 30.17 in 10.0 mi Calm Calm - N/A   Clear
6:53 AM 63.0 °F - 61.0 °F 93% 30.19 in 10.0 mi Calm Calm - N/A   Clear
8:53 AM 68.0 °F - 63.0 °F 84% 30.22 in 10.0 mi Calm Calm - N/A   Clear
9:53 AM 73.9 °F - 61.0 °F 64% 30.22 in 10.0 mi ESE 5.8 mph - N/A   Clear
11:53 AM 78.1 °F - 60.1 °F 54% 30.22 in 10.0 mi SSE 8.1 mph - N/A   Scattered Clouds
12:53 PM 79.0 °F - 59.0 °F 50% 30.20 in 10.0 mi ENE 8.1 mph - N/A   Scattered Clouds
1:53 PM 82.9 °F 82.8 °F 59.0 °F 44% 30.17 in 10.0 mi ENE 8.1 mph 19.6 mph N/A   Scattered Clouds
2:53 PM 82.9 °F 82.4 °F 57.0 °F 41% 30.14 in 10.0 mi ENE 12.7 mph 19.6 mph N/A   Partly Cloudy
3:53 PM 82.9 °F 82.6 °F 57.9 °F 42% 30.12 in 10.0 mi East 12.7 mph 20.7 mph N/A   Mostly Cloudy
4:53 PM 82.0 °F 81.7 °F 57.0 °F 42% 30.12 in 10.0 mi East 13.8 mph - N/A   Partly Cloudy
5:53 PM 80.1 °F 80.6 °F 57.9 °F 47% 30.12 in 10.0 mi East 10.4 mph - N/A   Clear
6:53 PM 78.1 °F - 57.9 °F 50% 30.12 in 10.0 mi ESE 11.5 mph - N/A   Clear
8:53 PM 71.1 °F - 60.1 °F 68% 30.15 in 10.0 mi ESE 8.1 mph - N/A   Clear
9:53 PM 69.1 °F - 60.1 °F 73% 30.16 in 10.0 mi East 5.8 mph - N/A   Clear
10:53 PM 68.0 °F - 61.0 °F 78% 30.17 in 10.0 mi East 8.1 mph - N/A   Clear
11:53 PM 66.0 °F - 60.1 °F 81% 30.16 in 10.0 mi SE 4.6 mph - N/A   Clear